Regional Weather Roundup
Issued by NWS

Home | Current Version | Previous Version | Graphics & Text | Print | Product List | Glossary On
Versions: 1 2 3 4 5 6 7 8 9 10 11 12 13 14 15 16 17 18 19 20 21 22 23 24 25 26 27 28 29 30 31 32 33 34 35 36 37 38 39 40 41 42 43 44 45 46 47 48 49 50
000
ASUS45 KTFX 220219
RWRMT
MONTANA HOURLY WEATHER ROUNDUP
NATIONAL WEATHER SERVICE GREAT FALLS MT
819 PM MDT SUN SEP 21 2014

NOTE: "FAIR" INDICATES FEW OR NO CLOUDS BELOW 12000 FEET WITH NO
SIGNIFICANT WEATHER AND/OR OBSTRUCTIONS TO VISIBILITY.

* THESE STATIONS ARE NOT UNDER NWS QUALITY CONTROL. THEY DO NOT
   REPORT WEATHER SUCH AS PRECIPITATION OR FOG.

MTZ001>007-043-220300-
WEST OF THE DIVIDE
CITY           SKY/WX    TMP DP  RH WIND       PRES   REMARKS
KALISPELL      CLEAR     64  48  56 CALM      29.94S
MISSOULA       MOCLDY    77  43  30 NE3       29.95S
BUTTE          PTCLDY    64  39  40 S16       30.13S
MULLAN PASS    PTCLDY    66  37  34 NW5       30.14S
* ESSEX        N/A       60  47  62 SE2        N/A
* LINCOLN      N/A       74  38  27 NE6G14     N/A
* LOOKOUT PASS N/A       68  44  42 N2         N/A
* POLSON       N/A       66  41  40 N/A        N/A
* RONAN APT    PTCLDY    72  43  35 N/A        N/A
* SEELEY LAKE  N/A       74  35  24 N1G7       N/A
* THOMP F APT  PTCLDY    64  40  41 S7G17      N/A
$$

MTZ008-052>055-220300-
SOUTHWEST MONTANA
CITY           SKY/WX    TMP DP  RH WIND       PRES   REMARKS
BOZEMAN        CLOUDY    63  46  54 SE8       30.10S
DILLON         CLOUDY    64  43  47 N6        30.10S
W YELLOWSTONE  CLOUDY    61  43  52 SW12      30.22S
* THREE FORKS  MOCLDY    70  70 100 N/A        N/A
* BOULDER HILL N/A       63  38  40 S6         N/A
* MONIDA PASS  N/A       61  41  48 S12        N/A
* RAYNOLDS PAS N/A       61  34  36 SE4        N/A
* WHITEHALL    N/A       70  45  41 E2G11      N/A
* WISE RIVER   N/A       69  35  29 SE6G12     N/A
$$

MTZ009>010-012-014-046-048-049-054-220300-
EAST SLOPES AND CENTRAL MONTANA
CITY           SKY/WX    TMP DP  RH WIND       PRES   REMARKS
CUT BANK       CLEAR     64  41  43 SE8       30.04S
GREAT FALLS    PTCLDY    63  46  54 E7        30.03F
HELENA         MOCLDY    72  46  40 SW6       30.03S
MALMSTROM AFB  PTCLDY    66  46  49 S9        30.04S
* CONRAD       CLEAR     64  45  50 N/A        N/A
* EAST GLACIER N/A       61  44  54 NE3        N/A
* MONARCH      N/A       57  41  55 S2         N/A
* PENDROY      N/A       62  44  52 SE7        N/A
* ROGERS PASS  N/A       58  39  49 NW3        N/A
* SAINT MARY   N/A       70  41  35 SE5G12     N/A
* SWEET GRASS  N/A       67  41  39 S14G19     N/A
* WHITE SULPH  N/A       62  43  50 NE6G16     N/A
$$

MTZ011-013-016-021-035-040-045-047-050-051-220300-
NORTH CENTRAL MONTANA
CITY           SKY/WX    TMP DP  RH WIND       PRES   REMARKS
HAVRE          CLEAR     66  46  49 SE12      30.03S
LEWISTOWN      CLEAR     63  43  48 SE7       30.12R
* CHINOOK      CLEAR     64  46  52 E7        30.05S
* FORT BENTON  CLEAR     72  45  38 E8G16     30.01F
* CHESTER      N/A       70  45  41 SE5G11     N/A
* DENTON       N/A       67  39  36 SE13       N/A
* GEYSER       N/A       60  42  52 E2         N/A
* JUDITH GAP   N/A       55  44  67 SE6        N/A
* LOMA         N/A       69  46  44 NE14       N/A
$$

MTZ017>020-022>027-061-062-220300-
NORTHEAST MONTANA
CITY           SKY/WX    TMP DP  RH WIND       PRES   REMARKS
GLASGOW        CLEAR     61  37  41 E10       30.10F
JORDAN         CLEAR     61  45  56 E5        30.13R
SIDNEY         CLEAR     54  36  51 CALM      30.18S
WOLF POINT     CLEAR     59  41  51 NE5       30.13S
* BEAVER HILL  N/A       59  33  38 SE8        N/A
* CIRCLE       N/A       62  41  46 N/A        N/A
* LINDSAY DVD  N/A       57  35  44 E5         N/A
$$

MTZ028>042-056>058-220300-
SOUTHCENTRAL AND SOUTHEAST MONTANA
CITY           SKY/WX    TMP DP  RH WIND       PRES   REMARKS
BAKER          CLEAR     52  37  57 SE8       30.21R
BILLINGS       PTCLDY    68  43  40 NE5       30.11F
LIVINGSTON     MOCLDY    64  46  52 E8        30.13S
MILES CITY     CLEAR     68  37  32 E7        30.14S
* LAUREL APT   MOCLDY    66  39  37 N/A        N/A
* ROUNDUP APT  CLEAR     68  43  40 N/A        N/A
* ALZADA       N/A       61  36  39 E8         N/A
* HYSHAM       N/A       66  39  37 SE2        N/A
* LAME DEER    N/A       64  42  45 SE8        N/A
* REED POINT   N/A       68  42  39 E2         N/A
* ROSCOE HILL  N/A       61  40  46 W4         N/A
$$

REGIONAL REPORTS...DAKOTAS
CITY           SKY/WX    TMP DP  RH WIND       PRES   REMARKS
WILLISTON      CLEAR     52  37  57 CALM      30.17S
DICKINSON      CLEAR     57  37  47 E8        30.20S
BEACH          N/A       48  37  66 S5        30.20S
CROSBY         CLEAR     50  45  83 S8        30.16S
TIOGA          CLEAR     48  34  59 S9        30.21S
WATFORD CITY   CLEAR     54  36  51 CALM      30.16S
BISMARCK       CLEAR     57  45  64 E3        30.22R
GRAND FORKS    CLEAR     52  48  86 S6        30.18S
FARGO          CLEAR     54  50  86 SE6       30.21S
BUFFALO SD     CLEAR     61  36  39 E12       30.17R
RAPID CITY     PTCLDY    59  37  44 E6        30.25S
$$

REGIONAL REPORTS...WYOMING/IDAHO/WASHINGTON
CITY           SKY/WX    TMP DP  RH WIND       PRES   REMARKS
GILLETTE       MOCLDY    54  41  62 SE6       30.22R
SHERIDAN       PTCLDY    66  45  47 SE3       30.14F
CODY           CLOUDY   N/A N/A N/A N/A        N/A
YELLOWSTONE LA CLOUDY    54  46  74 CALM      30.33S
SALMON         MOCLDY    70  48  46 CALM      29.98R
MULLAN PASS    PTCLDY    66  37  34 NW5       30.14S
SAND POINT     CLEAR     64  52  65 CALM      29.90S
SPOKANE        PTCLDY    81  39  22 CALM      29.90S
$$

REGIONAL REPORTS...ALBERTA
CITY           SKY/WX    TMP DP  RH WIND       PRES   REMARKS
CALGARY        FAIR      68  45  44 S10G17    29.93F
LETHBRIDGE     FAIR      59  45  60 SE9       29.96F
MEDICINE HAT   N/A       66  45  47 SE7       29.99F
EDMONTON       MOCLDY    66  46  49 SE12      29.82F
WATERTON GATE  N/A       57  45  64 SW3        N/A
CARDSTON       N/A       63  46  54 S3         N/A
MILK RIVER     N/A       61  43  52 S9         N/A
$$

REGIONAL REPORTS...SASKATCHEWAN
CITY           SKY/WX    TMP DP  RH WIND       PRES   REMARKS
SWIFT CURRENT  CLEAR     57  41  55 SE10      30.08S
REGINA         N/A       59  45  60 S8        30.11F
VAL MARIE      N/A       57  43  60 SE10       N/A
ASSINIBOIA     N/A       61  39  44 S7         N/A
CORONACH       N/A       54  37  53 S8         N/A

$$



USA.gov is the U.S. government's official web portal to all federal, state and local government web resources and services.